Flag for U.S.A. Weather past 2 weeks in Warminster Township, Pennsylvania, U.S.A.

Now
68 °F

Overcast.


Feels Like: 68 °F
Forecast: 58 / 69 °F
Wind: 7 mph from Northeast

Location: Doylestown Airport

Current Time: Oct 1, 2014 at 2:35:37 PM

Latest Report: Oct 1, 2014 at 1:54 PM


Visibility: 10 mi

Pressure: 30.02 "Hg

Humidity: 68%

Dew point: 57 °F

Location of Warminster TownshipLocation

Historic Weather in Warminster Township — Graph

°F

Warminster Township temperature yesterday

Maximum temperature yesterday: 77 °F (at 1:54 PM)
Minimum temperature yesterday: 58 °F (at 4:54 AM)
Average temperature yesterday: 65 °F

Past Weeks' High & Low Weather Summary

 TemperatureHumidityPressure
High83 °F (Sep 27, 3:54 PM)100% (Sep 18, 12:54 AM)30.53 "Hg (Sep 18, 12:54 AM)
Low43 °F (Sep 23, 3:54 AM)34% (Sep 23, 3:54 PM)29.62 "Hg (Sep 21, 5:54 PM)
Average62 °F75%30.11 "Hg
* Reported Sep 16 12:54 PM — Oct 1 12:54 PM, Warminster Township, Weather by CustomWeather, © 2014

Note: Actual official high and low records may vary slightly from our data, if they occured in-between our weather recording intervals... More about our weather records

Advertising

Warminster Township weather history for previous 24 hours

 ConditionsComfort  
Time TempWeatherWind HumidityBarometerVisibility
12:54 PM
Oct 1
67 °FMostly cloudy.5 mph68%30.03 "Hg10 mi
11:54 AM68 °FMore clouds than sun.8 mph65%30.05 "Hg10 mi
10:54 AM66 °FScattered clouds.6 mph73%30.05 "Hg10 mi
9:54 AM65 °FOvercast.9 mph78%30.04 "Hg10 mi
8:54 AM62 °FPassing clouds.6 mph83%30.03 "Hg10 mi
7:54 AM59 °FClear.3 mph93%30.01 "Hg10 mi
6:54 AM58 °FPassing clouds.5 mph97%29.99 "Hg10 mi
6:03 AM58 °FPassing clouds.3 mph100%29.99 "Hg10 mi
4:54 AM58 °FPassing clouds.3 mph100%29.98 "Hg10 mi
3:54 AM60 °FOvercast.5 mph93%29.97 "Hg10 mi
2:54 AM60 °FMostly cloudy.3 mph93%29.98 "Hg10 mi
1:54 AM60 °FOvercast.No wind96%29.98 "Hg10 mi
12:54 AM60 °FOvercast.3 mph96%29.97 "Hg10 mi
12:04 AM60 °FMostly cloudy.No wind96%29.98 "Hg10 mi
11:54 PM
Sep 30
59 °FMostly cloudy.No wind96%29.97 "Hg10 mi
10:54 PM60 °FPassing clouds.No wind93%29.96 "Hg10 mi
9:54 PM61 °FPassing clouds.No wind93%29.96 "Hg10 mi
8:54 PM62 °FClear.No wind86%29.96 "Hg10 mi
7:54 PM64 °FClear.No wind81%29.93 "Hg10 mi
6:54 PM65 °FSunny.No wind78%29.91 "Hg10 mi
5:54 PM68 °FSunny.No wind70%29.90 "Hg10 mi
4:54 PM72 °FPartly sunny.3 mph53%29.88 "Hg10 mi
3:54 PM74 °FPartly sunny.No wind46%29.89 "Hg10 mi
2:54 PM75 °FScattered clouds.5 mph47%29.89 "Hg10 mi
Weather by CustomWeather, © 2014

See weather overviewHow to use our weather pages